Time,TemperatureF,DewpointF,PressureIn,WindDirection,WindDirectionDegrees,WindSpeedMPH,WindSpeedGustMPH,Humidity,HourlyPrecipIn,Conditions,Clouds,dailyrainin,SoftwareType,DateUTC
2013-07-26 00:02:00,64.1,62.0,29.92,SSW,200,3.0,4.0,93,0.00,,,0.00,Wunderground v.1.15,2013-07-26 05:02:00,
2013-07-26 00:07:00,63.9,61.8,29.92,SW,224,3.0,4.0,93,0.00,,,0.00,Wunderground v.1.15,2013-07-26 05:07:00,
2013-07-26 00:12:00,63.8,62.0,29.92,SW,221,2.0,4.0,94,0.00,,,0.00,Wunderground v.1.15,2013-07-26 05:12:00,
2013-07-26 00:18:00,63.8,62.0,29.92,WSW,257,4.0,4.0,94,0.00,,,0.00,Wunderground v.1.15,2013-07-26 05:18:00,
2013-07-26 00:24:00,63.8,62.0,29.92,WSW,243,2.0,2.0,94,0.00,,,0.00,Wunderground v.1.15,2013-07-26 05:24:00,
2013-07-26 00:30:00,63.9,62.4,29.92,West,268,4.0,4.0,95,0.00,,,0.00,Wunderground v.1.15,2013-07-26 05:30:00,
2013-07-26 00:35:00,64.0,62.5,29.92,WSW,247,3.0,4.0,95,0.00,,,0.00,Wunderground v.1.15,2013-07-26 05:35:00,
2013-07-26 00:40:00,64.0,62.2,29.92,West,281,4.0,5.0,94,0.00,,,0.00,Wunderground v.1.15,2013-07-26 05:40:00,
2013-07-26 00:45:00,64.0,62.2,29.92,WSW,250,5.0,6.0,94,0.00,,,0.00,Wunderground v.1.15,2013-07-26 05:45:00,
2013-07-26 00:51:00,64.0,62.2,29.92,West,273,4.0,6.0,94,0.00,,,0.00,Wunderground v.1.15,2013-07-26 05:51:00,
2013-07-26 00:56:00,63.9,62.1,29.91,West,271,6.0,7.0,94,0.00,,,0.00,Wunderground v.1.15,2013-07-26 05:56:00,
2013-07-26 01:01:00,63.9,62.1,29.91,WNW,294,3.0,7.0,94,0.00,,,0.00,Wunderground v.1.15,2013-07-26 06:01:00,
2013-07-26 01:07:00,63.9,62.1,29.90,West,279,4.0,5.0,94,0.00,,,0.00,Wunderground v.1.15,2013-07-26 06:07:00,
2013-07-26 01:12:00,63.8,61.7,29.91,West,274,2.0,5.0,93,0.00,,,0.00,Wunderground v.1.15,2013-07-26 06:12:00,
2013-07-26 01:18:00,63.6,61.5,29.90,WNW,288,4.0,6.0,93,0.00,,,0.00,Wunderground v.1.15,2013-07-26 06:18:00,
2013-07-26 01:23:00,63.5,61.7,29.90,WNW,284,4.0,8.0,94,0.00,,,0.00,Wunderground v.1.15,2013-07-26 06:23:00,
2013-07-26 01:28:00,63.6,61.8,29.90,West,277,4.0,7.0,94,0.00,,,0.00,Wunderground v.1.15,2013-07-26 06:28:00,
2013-07-26 01:33:00,63.5,61.4,29.90,WNW,283,4.0,7.0,93,0.00,,,0.00,Wunderground v.1.15,2013-07-26 06:33:00,
2013-07-26 01:38:00,63.5,61.7,29.90,West,276,6.0,6.0,94,0.00,,,0.00,Wunderground v.1.15,2013-07-26 06:38:00,
2013-07-26 01:44:00,63.5,61.7,29.90,West,281,4.0,5.0,94,0.00,,,0.00,Wunderground v.1.15,2013-07-26 06:44:00,
2013-07-26 01:49:00,63.5,61.7,29.90,West,279,4.0,6.0,94,0.00,,,0.00,Wunderground v.1.15,2013-07-26 06:49:00,
2013-07-26 01:54:00,63.4,61.6,29.90,West,280,6.0,6.0,94,0.00,,,0.00,Wunderground v.1.15,2013-07-26 06:54:00,
2013-07-26 02:00:00,63.4,61.6,29.90,West,273,3.0,6.0,94,0.00,,,0.00,Wunderground v.1.15,2013-07-26 07:00:00,
2013-07-26 02:05:00,63.3,61.5,29.90,WNW,284,3.0,6.0,94,0.00,,,0.00,Wunderground v.1.15,2013-07-26 07:05:00,
2013-07-26 02:10:00,63.2,61.4,29.90,West,274,6.0,7.0,94,0.00,,,0.00,Wunderground v.1.15,2013-07-26 07:10:00,
2013-07-26 02:15:00,63.1,61.3,29.90,WNW,283,6.0,7.0,94,0.00,,,0.00,Wunderground v.1.15,2013-07-26 07:15:00,
2013-07-26 02:20:00,63.0,61.2,29.90,WNW,291,5.0,7.0,94,0.00,,,0.00,Wunderground v.1.15,2013-07-26 07:20:00,
2013-07-26 02:25:00,62.9,61.1,29.90,West,275,3.0,6.0,94,0.00,,,0.00,Wunderground v.1.15,2013-07-26 07:25:00,
2013-07-26 02:30:00,62.7,60.9,29.90,WNW,286,4.0,7.0,94,0.00,,,0.00,Wunderground v.1.15,2013-07-26 07:30:00,
2013-07-26 02:35:00,62.6,60.8,29.90,West,274,4.0,6.0,94,0.00,,,0.00,Wunderground v.1.15,2013-07-26 07:35:00,
2013-07-26 02:40:00,62.4,60.7,29.90,West,274,4.0,6.0,94,0.00,,,0.00,Wunderground v.1.15,2013-07-26 07:40:00,
2013-07-26 02:45:00,62.4,60.9,29.90,West,278,6.0,6.0,95,0.00,,,0.00,Wunderground v.1.15,2013-07-26 07:45:00,
2013-07-26 02:50:00,62.5,61.0,29.90,West,274,3.0,7.0,95,0.00,,,0.00,Wunderground v.1.15,2013-07-26 07:50:00,
2013-07-26 02:55:00,62.5,61.0,29.91,WNW,293,4.0,6.0,95,0.00,,,0.00,Wunderground v.1.15,2013-07-26 07:55:00,
2013-07-26 03:00:00,62.4,60.9,29.91,WNW,298,4.0,9.0,95,0.00,,,0.00,Wunderground v.1.15,2013-07-26 08:00:00,
2013-07-26 03:05:00,62.1,60.4,29.91,NW,304,3.0,5.0,94,0.00,,,0.00,Wunderground v.1.15,2013-07-26 08:05:00,
2013-07-26 03:10:00,62.0,60.6,29.91,WNW,300,7.0,9.0,95,0.00,,,0.00,Wunderground v.1.15,2013-07-26 08:10:00,
2013-07-26 03:15:00,62.2,60.8,29.91,WNW,294,5.0,7.0,95,0.00,,,0.00,Wunderground v.1.15,2013-07-26 08:15:00,
2013-07-26 03:20:00,62.1,60.7,29.91,WNW,290,5.0,7.0,95,0.00,,,0.00,Wunderground v.1.15,2013-07-26 08:20:00,
2013-07-26 03:25:00,62.3,60.8,29.91,NW,306,5.0,8.0,95,0.00,,,0.00,Wunderground v.1.15,2013-07-26 08:25:00,
2013-07-26 03:30:00,62.3,60.8,29.91,NW,319,4.0,8.0,95,0.00,,,0.00,Wunderground v.1.15,2013-07-26 08:30:00,
2013-07-26 03:36:00,62.1,60.4,29.90,NNW,329,4.0,8.0,94,0.00,,,0.00,Wunderground v.1.15,2013-07-26 08:36:00,
2013-07-26 03:41:00,61.9,60.2,29.90,NW,311,5.0,8.0,94,0.00,,,0.00,Wunderground v.1.15,2013-07-26 08:41:00,
2013-07-26 03:46:00,61.7,60.0,29.90,NNW,344,6.0,6.0,94,0.00,,,0.00,Wunderground v.1.15,2013-07-26 08:46:00,
2013-07-26 03:51:00,61.6,59.9,29.90,NNW,330,4.0,8.0,94,0.00,,,0.00,Wunderground v.1.15,2013-07-26 08:51:00,
2013-07-26 03:56:00,61.6,59.9,29.90,North,355,5.0,9.0,94,0.00,,,0.00,Wunderground v.1.15,2013-07-26 08:56:00,
2013-07-26 04:01:00,61.7,59.4,29.90,North,351,6.0,10.0,92,0.00,,,0.00,Wunderground v.1.15,2013-07-26 09:01:00,
2013-07-26 04:06:00,61.8,59.1,29.91,NNW,329,5.0,9.0,91,0.00,,,0.00,Wunderground v.1.15,2013-07-26 09:06:00,
2013-07-26 04:11:00,62.0,59.0,29.91,NNW,336,6.0,9.0,90,0.00,,,0.00,Wunderground v.1.15,2013-07-26 09:11:00,
2013-07-26 04:16:00,62.0,58.7,29.91,NNW,340,6.0,10.0,89,0.00,,,0.00,Wunderground v.1.15,2013-07-26 09:16:00,
2013-07-26 04:21:00,62.0,58.4,29.91,NNW,338,11.0,13.0,88,0.00,,,0.00,Wunderground v.1.15,2013-07-26 09:21:00,
2013-07-26 04:26:00,61.9,58.0,29.91,NNW,340,13.0,13.0,87,0.00,,,0.00,Wunderground v.1.15,2013-07-26 09:26:00,
2013-07-26 04:31:00,62.0,57.8,29.91,North,350,10.0,13.0,86,0.00,,,0.00,Wunderground v.1.15,2013-07-26 09:31:00,
2013-07-26 04:36:00,61.9,57.3,29.91,NNW,344,8.0,11.0,85,0.00,,,0.00,Wunderground v.1.15,2013-07-26 09:36:00,
2013-07-26 04:41:00,61.7,57.1,29.91,NNW,348,10.0,11.0,85,0.00,,,0.00,Wunderground v.1.15,2013-07-26 09:41:00,
2013-07-26 04:46:00,61.4,56.8,29.91,NW,322,8.0,12.0,85,0.00,,,0.00,Wunderground v.1.15,2013-07-26 09:46:00,
2013-07-26 04:52:00,61.2,56.7,29.91,NNW,347,10.0,12.0,85,0.00,,,0.00,Wunderground v.1.15,2013-07-26 09:52:00,
2013-07-26 04:57:00,61.1,56.9,29.91,NNW,342,8.0,12.0,86,0.00,,,0.00,Wunderground v.1.15,2013-07-26 09:57:00,
2013-07-26 05:02:00,60.8,56.6,29.91,NNW,331,8.0,12.0,86,0.00,,,0.00,Wunderground v.1.15,2013-07-26 10:02:00,
2013-07-26 05:07:00,60.6,56.7,29.91,NNW,338,9.0,12.0,87,0.00,,,0.00,Wunderground v.1.15,2013-07-26 10:07:00,
2013-07-26 05:12:00,60.4,56.5,29.91,NNW,342,9.0,12.0,87,0.00,,,0.00,Wunderground v.1.15,2013-07-26 10:12:00,
2013-07-26 05:17:00,60.2,56.3,29.92,NNW,328,5.0,14.0,87,0.00,,,0.00,Wunderground v.1.15,2013-07-26 10:17:00,
2013-07-26 05:22:00,60.1,55.9,29.92,NNW,335,9.0,14.0,86,0.00,,,0.00,Wunderground v.1.15,2013-07-26 10:22:00,
2013-07-26 05:27:00,60.0,55.8,29.92,NNW,340,8.0,11.0,86,0.00,,,0.00,Wunderground v.1.15,2013-07-26 10:27:00,
2013-07-26 05:32:00,59.8,55.6,29.92,NNW,344,10.0,12.0,86,0.00,,,0.00,Wunderground v.1.15,2013-07-26 10:32:00,
2013-07-26 05:37:00,59.6,55.4,29.92,NNW,333,10.0,11.0,86,0.00,,,0.00,Wunderground v.1.15,2013-07-26 10:37:00,
2013-07-26 05:42:00,59.5,55.3,29.92,NNW,342,6.0,12.0,86,0.00,,,0.00,Wunderground v.1.15,2013-07-26 10:42:00,
2013-07-26 05:47:00,59.3,54.8,29.92,NNW,336,8.0,12.0,85,0.00,,,0.00,Wunderground v.1.15,2013-07-26 10:47:00,
2013-07-26 05:52:00,59.1,54.6,29.92,NNW,345,9.0,12.0,85,0.00,,,0.00,Wunderground v.1.15,2013-07-26 10:52:00,
2013-07-26 05:57:00,58.9,54.7,29.92,NNW,327,5.0,10.0,86,0.00,,,0.00,Wunderground v.1.15,2013-07-26 10:57:00,
2013-07-26 06:02:00,58.6,54.4,29.93,NW,325,5.0,11.0,86,0.00,,,0.00,Wunderground v.1.15,2013-07-26 11:02:00,
2013-07-26 06:07:00,58.4,54.2,29.93,NNW,334,9.0,10.0,86,0.00,,,0.00,Wunderground v.1.15,2013-07-26 11:07:00,
2013-07-26 06:12:00,58.2,54.0,29.93,NW,321,5.0,10.0,86,0.00,,,0.00,Wunderground v.1.15,2013-07-26 11:12:00,
2013-07-26 06:17:00,58.0,53.8,29.94,NNW,327,5.0,9.0,86,0.00,,,0.00,Wunderground v.1.15,2013-07-26 11:17:00,
2013-07-26 06:22:00,57.9,53.7,29.94,NW,314,6.0,9.0,86,0.00,,,0.00,Wunderground v.1.15,2013-07-26 11:22:00,
2013-07-26 06:27:00,57.8,53.6,29.94,NNW,327,6.0,8.0,86,0.00,,,0.00,Wunderground v.1.15,2013-07-26 11:27:00,
2013-07-26 06:32:00,57.8,53.6,29.94,NW,321,8.0,8.0,86,0.00,,,0.00,Wunderground v.1.15,2013-07-26 11:32:00,
2013-07-26 06:37:00,57.8,53.6,29.95,NW,325,6.0,9.0,86,0.00,,,0.00,Wunderground v.1.15,2013-07-26 11:37:00,
2013-07-26 06:42:00,57.7,53.5,29.95,NNW,333,8.0,9.0,86,0.00,,,0.00,Wunderground v.1.15,2013-07-26 11:42:00,
2013-07-26 06:47:00,57.7,53.5,29.95,NW,325,8.0,9.0,86,0.00,,,0.00,Wunderground v.1.15,2013-07-26 11:47:00,
2013-07-26 06:52:00,57.9,53.7,29.95,NW,313,5.0,9.0,86,0.00,,,0.00,Wunderground v.1.15,2013-07-26 11:52:00,
2013-07-26 06:57:00,58.1,53.9,29.95,NW,319,5.0,11.0,86,0.00,,,0.00,Wunderground v.1.15,2013-07-26 11:57:00,
2013-07-26 07:02:00,58.3,54.1,29.96,NW,314,5.0,11.0,86,0.00,,,0.00,Wunderground v.1.15,2013-07-26 12:02:00,
2013-07-26 07:07:00,58.5,54.0,29.96,NNW,332,8.0,9.0,85,0.00,,,0.00,Wunderground v.1.15,2013-07-26 12:07:00,
2013-07-26 07:12:00,58.7,54.2,29.96,NW,315,6.0,11.0,85,0.00,,,0.00,Wunderground v.1.15,2013-07-26 12:12:00,
2013-07-26 07:18:00,58.9,54.1,29.96,NW,324,8.0,11.0,84,0.00,,,0.00,Wunderground v.1.15,2013-07-26 12:18:00,
2013-07-26 07:23:00,59.0,54.2,29.96,NW,319,6.0,11.0,84,0.00,,,0.00,Wunderground v.1.15,2013-07-26 12:23:00,
2013-07-26 07:28:00,59.2,54.4,29.96,NNW,333,6.0,10.0,84,0.00,,,0.00,Wunderground v.1.15,2013-07-26 12:28:00,
2013-07-26 07:33:00,59.5,54.7,29.97,NW,324,6.0,10.0,84,0.00,,,0.00,Wunderground v.1.15,2013-07-26 12:33:00,
2013-07-26 07:38:00,59.7,54.5,29.97,NW,313,5.0,10.0,83,0.00,,,0.00,Wunderground v.1.15,2013-07-26 12:38:00,
2013-07-26 07:43:00,60.0,54.5,29.97,NNW,333,5.0,10.0,82,0.00,,,0.00,Wunderground v.1.15,2013-07-26 12:43:00,
2013-07-26 07:48:00,60.3,54.8,29.97,NW,311,10.0,11.0,82,0.00,,,0.00,Wunderground v.1.15,2013-07-26 12:48:00,
2013-07-26 07:53:00,60.5,55.0,29.97,NW,319,8.0,13.0,82,0.00,,,0.00,Wunderground v.1.15,2013-07-26 12:53:00,
2013-07-26 07:58:00,60.9,54.7,29.98,NW,310,8.0,13.0,80,0.00,,,0.00,Wunderground v.1.15,2013-07-26 12:58:00,
2013-07-26 08:03:00,61.1,54.9,29.98,NW,311,11.0,14.0,80,0.00,,,0.00,Wunderground v.1.15,2013-07-26 13:03:00,
2013-07-26 08:08:00,61.2,55.0,29.98,NNW,335,11.0,14.0,80,0.00,,,0.00,Wunderground v.1.15,2013-07-26 13:08:00,
2013-07-26 08:13:00,61.4,55.5,29.98,NW,308,14.0,14.0,81,0.00,,,0.00,Wunderground v.1.15,2013-07-26 13:13:00,
2013-07-26 08:18:00,61.7,55.1,29.98,NNW,333,9.0,15.0,79,0.00,,,0.00,Wunderground v.1.15,2013-07-26 13:18:00,
2013-07-26 08:23:00,61.8,55.2,29.99,North,5,12.0,16.0,79,0.00,,,0.00,Wunderground v.1.15,2013-07-26 13:23:00,
2013-07-26 08:28:00,61.9,55.0,29.99,North,355,6.0,17.0,78,0.00,,,0.00,Wunderground v.1.15,2013-07-26 13:28:00,
2013-07-26 08:33:00,62.2,56.0,29.99,NNW,338,13.0,17.0,80,0.00,,,0.00,Wunderground v.1.15,2013-07-26 13:33:00,
2013-07-26 08:38:00,62.4,54.7,29.99,NW,317,12.0,17.0,76,0.00,,,0.00,Wunderground v.1.15,2013-07-26 13:38:00,
2013-07-26 08:43:00,62.4,54.7,29.99,WNW,294,10.0,17.0,76,0.00,,,0.00,Wunderground v.1.15,2013-07-26 13:43:00,
2013-07-26 08:48:00,62.6,55.3,29.99,NW,322,14.0,16.0,77,0.00,,,0.00,Wunderground v.1.15,2013-07-26 13:48:00,
2013-07-26 08:53:00,62.7,54.7,29.99,NW,325,18.0,18.0,75,0.00,,,0.00,Wunderground v.1.15,2013-07-26 13:53:00,
2013-07-26 08:58:00,62.7,54.7,29.99,NW,321,16.0,16.0,75,0.00,,,0.00,Wunderground v.1.15,2013-07-26 13:58:00,
2013-07-26 09:03:00,62.5,54.1,30.00,NNW,327,15.0,18.0,74,0.00,,,0.00,Wunderground v.1.15,2013-07-26 14:03:00,
2013-07-26 09:08:00,62.3,53.9,30.00,NW,314,9.0,17.0,74,0.00,,,0.00,Wunderground v.1.15,2013-07-26 14:08:00,
2013-07-26 09:13:00,62.2,53.8,30.00,NW,317,13.0,18.0,74,0.00,,,0.00,Wunderground v.1.15,2013-07-26 14:13:00,
2013-07-26 09:18:00,62.4,54.0,30.00,NNW,328,14.0,18.0,74,0.00,,,0.00,Wunderground v.1.15,2013-07-26 14:18:00,
2013-07-26 09:23:00,62.4,54.0,30.00,NNW,336,9.0,20.0,74,0.00,,,0.00,Wunderground v.1.15,2013-07-26 14:23:00,
2013-07-26 09:28:00,63.1,55.4,30.00,NNW,348,15.0,18.0,76,0.00,,,0.00,Wunderground v.1.15,2013-07-26 14:28:00,
2013-07-26 09:33:00,63.2,54.4,30.00,NNW,342,11.0,18.0,73,0.00,,,0.00,Wunderground v.1.15,2013-07-26 14:33:00,
2013-07-26 09:38:00,63.0,54.6,30.00,NW,310,12.0,17.0,74,0.00,,,0.00,Wunderground v.1.15,2013-07-26 14:38:00,
2013-07-26 09:43:00,63.8,55.0,30.00,NW,316,14.0,17.0,73,0.00,,,0.00,Wunderground v.1.15,2013-07-26 14:43:00,
2013-07-26 09:48:00,63.0,54.2,30.00,NW,317,11.0,18.0,73,0.00,,,0.00,Wunderground v.1.15,2013-07-26 14:48:00,
2013-07-26 09:53:00,63.3,54.1,30.00,NW,305,14.0,21.0,72,0.00,,,0.00,Wunderground v.1.15,2013-07-26 14:53:00,
2013-07-26 09:58:00,63.7,54.5,30.00,NW,307,11.0,21.0,72,0.00,,,0.00,Wunderground v.1.15,2013-07-26 14:58:00,
2013-07-26 10:03:00,64.2,54.6,30.01,NW,309,13.0,21.0,71,0.00,,,0.00,Wunderground v.1.15,2013-07-26 15:03:00,
2013-07-26 10:08:00,64.4,54.8,30.01,North,355,12.0,19.0,71,0.00,,,0.00,Wunderground v.1.15,2013-07-26 15:08:00,
2013-07-26 10:13:00,64.6,54.6,30.01,NNW,341,14.0,20.0,70,0.00,,,0.00,Wunderground v.1.15,2013-07-26 15:13:00,
2013-07-26 10:18:00,64.7,54.7,30.01,WNW,294,14.0,19.0,70,0.00,,,0.00,Wunderground v.1.15,2013-07-26 15:18:00,
2013-07-26 10:23:00,64.8,54.4,30.01,North,349,13.0,19.0,69,0.00,,,0.00,Wunderground v.1.15,2013-07-26 15:23:00,
2013-07-26 10:28:00,65.1,54.7,30.01,NNW,342,12.0,21.0,69,0.00,,,0.00,Wunderground v.1.15,2013-07-26 15:28:00,
2013-07-26 10:33:00,65.7,54.4,30.01,NNW,338,20.0,21.0,67,0.00,,,0.00,Wunderground v.1.15,2013-07-26 15:33:00,
2013-07-26 10:38:00,65.1,54.7,30.01,North,355,22.0,23.0,69,0.00,,,0.00,Wunderground v.1.15,2013-07-26 15:38:00,
2013-07-26 10:43:00,65.4,53.7,30.01,North,355,14.0,23.0,66,0.00,,,0.00,Wunderground v.1.15,2013-07-26 15:43:00,
2013-07-26 10:48:00,65.5,53.4,30.02,NNW,331,15.0,18.0,65,0.00,,,0.00,Wunderground v.1.15,2013-07-26 15:48:00,
2013-07-26 10:53:00,64.8,52.8,30.02,NNW,330,18.0,23.0,65,0.00,,,0.00,Wunderground v.1.15,2013-07-26 15:53:00,
2013-07-26 10:58:00,64.9,52.8,30.02,NNW,348,9.0,23.0,65,0.00,,,0.00,Wunderground v.1.15,2013-07-26 15:58:00,
2013-07-26 11:03:00,65.4,53.3,30.02,NNW,329,12.0,23.0,65,0.00,,,0.00,Wunderground v.1.15,2013-07-26 16:03:00,
2013-07-26 11:08:00,65.6,53.5,30.02,North,355,16.0,22.0,65,0.00,,,0.00,Wunderground v.1.15,2013-07-26 16:08:00,
2013-07-26 11:13:00,65.2,53.1,30.03,NNE,21,11.0,22.0,65,0.00,,,0.00,Wunderground v.1.15,2013-07-26 16:13:00,
2013-07-26 11:18:00,64.8,53.2,30.03,NW,323,12.0,22.0,66,0.00,,,0.00,Wunderground v.1.15,2013-07-26 16:18:00,
2013-07-26 11:23:00,63.9,52.7,30.03,NNW,333,18.0,22.0,67,0.00,,,0.00,Wunderground v.1.15,2013-07-26 16:23:00,
2013-07-26 11:28:00,64.4,53.6,30.04,NW,309,17.0,20.0,68,0.00,,,0.00,Wunderground v.1.15,2013-07-26 16:28:00,
2013-07-26 11:33:00,64.5,52.0,30.04,NNW,329,14.0,20.0,64,0.00,,,0.00,Wunderground v.1.15,2013-07-26 16:33:00,
2013-07-26 11:38:00,63.9,51.9,30.04,NNW,327,17.0,20.0,65,0.00,,,0.00,Wunderground v.1.15,2013-07-26 16:38:00,
2013-07-26 11:43:00,63.5,51.9,30.04,NW,306,12.0,20.0,66,0.00,,,0.00,Wunderground v.1.15,2013-07-26 16:43:00,
2013-07-26 11:48:00,63.6,52.4,30.04,NNW,331,18.0,18.0,67,0.00,,,0.00,Wunderground v.1.15,2013-07-26 16:48:00,
2013-07-26 11:53:00,63.9,53.1,30.04,NNW,333,21.0,21.0,68,0.00,,,0.00,Wunderground v.1.15,2013-07-26 16:53:00,
2013-07-26 11:58:00,64.1,53.7,30.04,NNW,344,12.0,20.0,69,0.00,,,0.00,Wunderground v.1.15,2013-07-26 16:58:00,
2013-07-26 12:03:00,64.4,54.0,30.04,NNW,331,13.0,20.0,69,0.00,,,0.00,Wunderground v.1.15,2013-07-26 17:03:00,
2013-07-26 12:08:00,63.8,52.6,30.04,NW,309,12.0,18.0,67,0.00,,,0.00,Wunderground v.1.15,2013-07-26 17:08:00,
2013-07-26 12:13:00,63.8,52.6,30.04,NW,322,10.0,21.0,67,0.00,,,0.00,Wunderground v.1.15,2013-07-26 17:13:00,
2013-07-26 12:18:00,63.8,52.6,30.04,NW,317,14.0,18.0,67,0.00,,,0.00,Wunderground v.1.15,2013-07-26 17:18:00,
2013-07-26 12:23:00,63.8,53.0,30.03,NNW,327,14.0,18.0,68,0.00,,,0.00,Wunderground v.1.15,2013-07-26 17:23:00,
2013-07-26 12:28:00,63.9,53.5,30.04,NNW,344,13.0,21.0,69,0.00,,,0.00,Wunderground v.1.15,2013-07-26 17:28:00,
2013-07-26 12:33:00,64.9,53.7,30.04,NNW,327,13.0,21.0,67,0.00,,,0.00,Wunderground v.1.15,2013-07-26 17:33:00,
2013-07-26 12:34:00,65.0,53.8,30.04,NNW,328,13.0,21.0,67,0.00,,,0.00,Wunderground v.1.15,2013-07-26 17:34:00,
2013-07-26 12:39:00,65.2,53.1,30.04,NW,323,9.0,21.0,65,0.00,,,0.00,Wunderground v.1.15,2013-07-26 17:39:00,
2013-07-26 12:44:00,65.0,52.5,30.04,WNW,298,11.0,19.0,64,0.00,,,0.00,Wunderground v.1.15,2013-07-26 17:44:00,
2013-07-26 12:49:00,64.9,53.3,30.04,NW,312,16.0,19.0,66,0.00,,,0.00,Wunderground v.1.15,2013-07-26 17:49:00,
2013-07-26 12:54:00,64.9,53.3,30.04,WNW,302,15.0,20.0,66,0.00,,,0.00,Wunderground v.1.15,2013-07-26 17:54:00,
2013-07-26 12:59:00,65.6,54.8,30.03,NNW,327,15.0,20.0,68,0.00,,,0.00,Wunderground v.1.15,2013-07-26 17:59:00,
2013-07-26 13:04:00,65.9,54.2,30.03,NW,314,13.0,17.0,66,0.00,,,0.00,Wunderground v.1.15,2013-07-26 18:04:00,
2013-07-26 13:09:00,66.0,53.5,30.03,NNW,333,12.0,20.0,64,0.00,,,0.00,Wunderground v.1.15,2013-07-26 18:09:00,
2013-07-26 13:14:00,66.0,54.3,30.03,NW,321,12.0,16.0,66,0.00,,,0.00,Wunderground v.1.15,2013-07-26 18:14:00,
2013-07-26 13:19:00,65.6,53.5,30.03,WNW,296,13.0,21.0,65,0.00,,,0.00,Wunderground v.1.15,2013-07-26 18:19:00,
2013-07-26 13:24:00,66.1,54.0,30.03,NNW,344,19.0,19.0,65,0.00,,,0.00,Wunderground v.1.15,2013-07-26 18:24:00,
2013-07-26 13:29:00,66.1,53.6,30.03,NW,307,18.0,21.0,64,0.00,,,0.00,Wunderground v.1.15,2013-07-26 18:29:00,
2013-07-26 13:34:00,65.9,53.8,30.03,NNW,342,15.0,15.0,65,0.00,,,0.00,Wunderground v.1.15,2013-07-26 18:34:00,
2013-07-26 13:39:00,65.7,54.4,30.03,NW,311,13.0,20.0,67,0.00,,,0.00,Wunderground v.1.15,2013-07-26 18:39:00,
2013-07-26 13:44:00,66.3,54.2,30.03,NW,315,11.0,13.0,65,0.00,,,0.00,Wunderground v.1.15,2013-07-26 18:44:00,
2013-07-26 13:49:00,66.3,53.8,30.04,NNW,343,13.0,20.0,64,0.00,,,0.00,Wunderground v.1.15,2013-07-26 18:49:00,
2013-07-26 13:55:00,66.0,53.0,30.03,NNW,327,19.0,21.0,63,0.00,,,0.00,Wunderground v.1.15,2013-07-26 18:55:00,
2013-07-26 14:00:00,65.7,52.8,30.03,NNW,331,15.0,21.0,63,0.00,,,0.00,Wunderground v.1.15,2013-07-26 19:00:00,
2013-07-26 14:05:00,65.9,52.9,30.03,NW,316,15.0,20.0,63,0.00,,,0.00,Wunderground v.1.15,2013-07-26 19:05:00,
2013-07-26 14:10:00,65.8,53.3,30.03,NNW,338,11.0,20.0,64,0.00,,,0.00,Wunderground v.1.15,2013-07-26 19:10:00,
2013-07-26 14:15:00,66.1,54.4,30.03,NW,315,11.0,23.0,66,0.00,,,0.00,Wunderground v.1.15,2013-07-26 19:15:00,
2013-07-26 14:20:00,67.2,54.2,30.03,WNW,298,10.0,23.0,63,0.00,,,0.00,Wunderground v.1.15,2013-07-26 19:20:00,
2013-07-26 14:25:00,67.1,53.6,30.03,NNW,330,6.0,18.0,62,0.00,,,0.00,Wunderground v.1.15,2013-07-26 19:25:00,
2013-07-26 14:30:00,67.6,55.0,30.03,NW,317,14.0,18.0,64,0.00,,,0.00,Wunderground v.1.15,2013-07-26 19:30:00,
2013-07-26 14:35:00,68.3,54.3,30.03,NNW,331,11.0,15.0,61,0.00,,,0.00,Wunderground v.1.15,2013-07-26 19:35:00,
2013-07-26 14:40:00,68.8,54.8,30.02,North,350,15.0,21.0,61,0.00,,,0.00,Wunderground v.1.15,2013-07-26 19:40:00,
2013-07-26 14:45:00,69.3,53.4,30.03,NW,317,11.0,17.0,57,0.00,,,0.00,Wunderground v.1.15,2013-07-26 19:45:00,
2013-07-26 14:50:00,68.9,53.5,30.03,NW,323,14.0,22.0,58,0.00,,,0.00,Wunderground v.1.15,2013-07-26 19:50:00,
2013-07-26 14:56:00,68.7,53.3,30.03,NW,311,14.0,18.0,58,0.00,,,0.00,Wunderground v.1.15,2013-07-26 19:56:00,
2013-07-26 15:01:00,68.3,53.4,30.03,NNW,343,16.0,21.0,59,0.00,,,0.00,Wunderground v.1.15,2013-07-26 20:01:00,
2013-07-26 15:06:00,69.0,55.0,30.03,NNW,333,16.0,19.0,61,0.00,,,0.00,Wunderground v.1.15,2013-07-26 20:06:00,
2013-07-26 15:11:00,68.3,52.9,30.03,North,355,12.0,21.0,58,0.00,,,0.00,Wunderground v.1.15,2013-07-26 20:11:00,
2013-07-26 15:16:00,67.8,52.0,30.03,NNW,329,12.0,20.0,57,0.00,,,0.00,Wunderground v.1.15,2013-07-26 20:16:00,
2013-07-26 15:21:00,68.1,52.8,30.03,NNW,332,13.0,21.0,58,0.00,,,0.00,Wunderground v.1.15,2013-07-26 20:21:00,
2013-07-26 15:26:00,68.6,52.8,30.03,NW,324,15.0,21.0,57,0.00,,,0.00,Wunderground v.1.15,2013-07-26 20:26:00,
2013-07-26 15:31:00,69.0,52.6,30.03,NNW,346,16.0,21.0,56,0.00,,,0.00,Wunderground v.1.15,2013-07-26 20:31:00,
2013-07-26 15:36:00,68.3,52.9,30.03,North,355,9.0,17.0,58,0.00,,,0.00,Wunderground v.1.15,2013-07-26 20:36:00,
2013-07-26 15:41:00,67.8,52.9,30.03,North,355,10.0,19.0,59,0.00,,,0.00,Wunderground v.1.15,2013-07-26 20:41:00,
2013-07-26 15:46:00,67.9,53.0,30.03,NNW,338,13.0,19.0,59,0.00,,,0.00,Wunderground v.1.15,2013-07-26 20:46:00,
2013-07-26 15:51:00,68.3,52.9,30.03,NW,312,17.0,20.0,58,0.00,,,0.00,Wunderground v.1.15,2013-07-26 20:51:00,
2013-07-26 15:56:00,68.4,54.0,30.03,North,360,13.0,20.0,60,0.00,,,0.00,Wunderground v.1.15,2013-07-26 20:56:00,
2013-07-26 16:01:00,68.8,53.4,30.03,NNW,339,15.0,20.0,58,0.00,,,0.00,Wunderground v.1.15,2013-07-26 21:01:00,
2013-07-26 16:06:00,68.7,52.8,30.03,NNW,339,16.0,16.0,57,0.00,,,0.00,Wunderground v.1.15,2013-07-26 21:06:00,
2013-07-26 16:11:00,68.3,52.5,30.04,NNW,337,15.0,21.0,57,0.00,,,0.00,Wunderground v.1.15,2013-07-26 21:11:00,
2013-07-26 16:16:00,67.8,52.0,30.04,NNW,333,14.0,20.0,57,0.00,,,0.00,Wunderground v.1.15,2013-07-26 21:16:00,
2013-07-26 16:21:00,67.6,52.3,30.04,NNW,338,12.0,20.0,58,0.00,,,0.00,Wunderground v.1.15,2013-07-26 21:21:00,
2013-07-26 16:27:00,67.5,52.7,30.04,NW,317,11.0,18.0,59,0.00,,,0.00,Wunderground v.1.15,2013-07-26 21:27:00,
2013-07-26 16:32:00,67.2,52.8,30.04,NNW,331,16.0,20.0,60,0.00,,,0.00,Wunderground v.1.15,2013-07-26 21:32:00,
2013-07-26 16:37:00,67.7,52.9,30.04,NW,311,12.0,21.0,59,0.00,,,0.00,Wunderground v.1.15,2013-07-26 21:37:00,
2013-07-26 16:42:00,68.1,52.8,30.03,WNW,302,13.0,24.0,58,0.00,,,0.00,Wunderground v.1.15,2013-07-26 21:42:00,
2013-07-26 16:47:00,69.0,53.1,30.03,North,349,15.0,20.0,57,0.00,,,0.00,Wunderground v.1.15,2013-07-26 21:47:00,
2013-07-26 16:52:00,70.1,53.7,30.03,NW,323,17.0,21.0,56,0.00,,,0.00,Wunderground v.1.15,2013-07-26 21:52:00,
2013-07-26 16:57:00,70.4,53.5,30.02,NNW,339,17.0,20.0,55,0.00,,,0.00,Wunderground v.1.15,2013-07-26 21:57:00,
2013-07-26 17:02:00,70.1,52.2,30.02,NNW,336,20.0,26.0,53,0.00,,,0.00,Wunderground v.1.15,2013-07-26 22:02:00,
2013-07-26 17:07:00,69.3,52.4,30.02,NNW,338,18.0,21.0,55,0.00,,,0.00,Wunderground v.1.15,2013-07-26 22:07:00,
2013-07-26 17:12:00,69.1,51.8,30.02,NW,320,16.0,21.0,54,0.00,,,0.00,Wunderground v.1.15,2013-07-26 22:12:00,
2013-07-26 17:17:00,68.5,51.2,30.02,North,360,16.0,24.0,54,0.00,,,0.00,Wunderground v.1.15,2013-07-26 22:17:00,
2013-07-26 17:22:00,68.8,52.0,30.02,North,355,13.0,25.0,55,0.00,,,0.00,Wunderground v.1.15,2013-07-26 22:22:00,
2013-07-26 17:27:00,69.3,51.9,30.02,NNW,335,14.0,19.0,54,0.00,,,0.00,Wunderground v.1.15,2013-07-26 22:27:00,
2013-07-26 17:32:00,69.7,52.8,30.02,North,360,15.0,22.0,55,0.00,,,0.00,Wunderground v.1.15,2013-07-26 22:32:00,
2013-07-26 17:37:00,69.8,50.9,30.02,NNW,337,19.0,23.0,51,0.00,,,0.00,Wunderground v.1.15,2013-07-26 22:37:00,
2013-07-26 17:42:00,69.4,51.0,30.02,NNW,344,15.0,23.0,52,0.00,,,0.00,Wunderground v.1.15,2013-07-26 22:42:00,
2013-07-26 17:47:00,69.2,52.3,30.01,NNW,327,21.0,21.0,55,0.00,,,0.00,Wunderground v.1.15,2013-07-26 22:47:00,
2013-07-26 17:52:00,69.0,51.2,30.02,NNW,336,14.0,25.0,53,0.00,,,0.00,Wunderground v.1.15,2013-07-26 22:52:00,
2013-07-26 17:57:00,69.0,53.1,30.03,NW,324,12.0,16.0,57,0.00,,,0.00,Wunderground v.1.15,2013-07-26 22:57:00,
2013-07-26 18:02:00,69.4,52.0,30.02,NNW,342,15.0,21.0,54,0.00,,,0.00,Wunderground v.1.15,2013-07-26 23:02:00,
2013-07-26 18:07:00,69.4,51.5,30.02,NNW,329,13.0,19.0,53,0.00,,,0.00,Wunderground v.1.15,2013-07-26 23:07:00,
2013-07-26 18:12:00,68.3,51.0,30.03,NNW,333,11.0,19.0,54,0.00,,,0.00,Wunderground v.1.15,2013-07-26 23:12:00,
2013-07-26 18:17:00,67.5,50.8,30.03,NNW,344,12.0,20.0,55,0.00,,,0.00,Wunderground v.1.15,2013-07-26 23:17:00,
2013-07-26 18:22:00,68.2,51.4,30.02,NNW,333,16.0,23.0,55,0.00,,,0.00,Wunderground v.1.15,2013-07-26 23:22:00,
2013-07-26 18:27:00,68.2,50.4,30.03,North,350,11.0,21.0,53,0.00,,,0.00,Wunderground v.1.15,2013-07-26 23:27:00,
2013-07-26 18:32:00,67.8,51.0,30.03,NNW,346,11.0,21.0,55,0.00,,,0.00,Wunderground v.1.15,2013-07-26 23:32:00,
2013-07-26 18:37:00,67.2,51.4,30.03,NNE,17,11.0,15.0,57,0.00,,,0.00,Wunderground v.1.15,2013-07-26 23:37:00,
2013-07-26 18:42:00,67.4,49.7,30.03,NNW,343,14.0,19.0,53,0.00,,,0.00,Wunderground v.1.15,2013-07-26 23:42:00,
2013-07-26 18:47:00,67.2,50.0,30.03,NNW,331,14.0,20.0,54,0.00,,,0.00,Wunderground v.1.15,2013-07-26 23:47:00,
2013-07-26 18:52:00,66.8,49.6,30.03,North,355,11.0,20.0,54,0.00,,,0.00,Wunderground v.1.15,2013-07-26 23:52:00,
2013-07-26 18:57:00,67.0,50.3,30.03,North,5,11.0,16.0,55,0.00,,,0.00,Wunderground v.1.15,2013-07-26 23:57:00,
2013-07-26 19:02:00,67.4,50.2,30.03,NNW,348,14.0,18.0,54,0.00,,,0.00,Wunderground v.1.15,2013-07-27 00:02:00,
2013-07-26 19:07:00,67.6,48.8,30.03,WNW,303,18.0,20.0,51,0.00,,,0.00,Wunderground v.1.15,2013-07-27 00:07:00,
2013-07-26 19:12:00,67.7,48.9,30.03,NNE,23,21.0,21.0,51,0.00,,,0.00,Wunderground v.1.15,2013-07-27 00:12:00,
2013-07-26 19:17:00,67.7,48.9,30.03,NNW,344,15.0,19.0,51,0.00,,,0.00,Wunderground v.1.15,2013-07-27 00:17:00,
2013-07-26 19:22:00,67.6,49.3,30.04,NNW,336,14.0,22.0,52,0.00,,,0.00,Wunderground v.1.15,2013-07-27 00:22:00,
2013-07-26 19:27:00,67.4,49.2,30.04,NNE,16,14.0,18.0,52,0.00,,,0.00,Wunderground v.1.15,2013-07-27 00:27:00,
2013-07-26 19:32:00,67.4,49.7,30.04,NNW,342,11.0,19.0,53,0.00,,,0.00,Wunderground v.1.15,2013-07-27 00:32:00,
2013-07-26 19:37:00,67.3,49.6,30.04,North,360,12.0,16.0,53,0.00,,,0.00,Wunderground v.1.15,2013-07-27 00:37:00,
2013-07-26 19:42:00,67.2,49.5,30.04,NNW,327,12.0,16.0,53,0.00,,,0.00,Wunderground v.1.15,2013-07-27 00:42:00,
2013-07-26 19:47:00,67.0,49.8,30.04,North,5,12.0,16.0,54,0.00,,,0.00,Wunderground v.1.15,2013-07-27 00:47:00,
2013-07-26 19:52:00,66.7,49.5,30.04,North,355,10.0,17.0,54,0.00,,,0.00,Wunderground v.1.15,2013-07-27 00:52:00,
2013-07-26 19:57:00,66.2,48.6,30.04,NNW,340,10.0,13.0,53,0.00,,,0.00,Wunderground v.1.15,2013-07-27 00:57:00,
2013-07-26 20:02:00,65.5,48.4,30.04,North,360,8.0,13.0,54,0.00,,,0.00,Wunderground v.1.15,2013-07-27 01:02:00,
2013-07-26 20:08:00,65.0,48.9,30.04,North,351,6.0,11.0,56,0.00,,,0.00,Wunderground v.1.15,2013-07-27 01:08:00,
2013-07-26 20:13:00,64.5,48.9,30.04,NNW,348,8.0,11.0,57,0.00,,,0.00,Wunderground v.1.15,2013-07-27 01:13:00,
2013-07-26 20:18:00,64.1,49.5,30.04,NNW,339,6.0,9.0,59,0.00,,,0.00,Wunderground v.1.15,2013-07-27 01:18:00,
2013-07-26 20:23:00,63.8,49.6,30.04,NNW,342,5.0,9.0,60,0.00,,,0.00,Wunderground v.1.15,2013-07-27 01:23:00,
2013-07-26 20:28:00,63.2,50.0,30.04,NNW,343,4.0,6.0,62,0.00,,,0.00,Wunderground v.1.15,2013-07-27 01:28:00,
2013-07-26 20:33:00,62.7,50.3,30.05,NW,325,4.0,6.0,64,0.00,,,0.00,Wunderground v.1.15,2013-07-27 01:33:00,
2013-07-26 20:38:00,62.0,50.1,30.05,NNW,345,6.0,8.0,65,0.00,,,0.00,Wunderground v.1.15,2013-07-27 01:38:00,
2013-07-26 20:43:00,61.4,50.3,30.05,NNW,343,4.0,8.0,67,0.00,,,0.00,Wunderground v.1.15,2013-07-27 01:43:00,
2013-07-26 20:48:00,60.9,50.3,30.05,NNW,336,5.0,5.0,68,0.00,,,0.00,Wunderground v.1.15,2013-07-27 01:48:00,
2013-07-26 20:53:00,60.4,50.2,30.05,NNW,344,4.0,5.0,69,0.00,,,0.00,Wunderground v.1.15,2013-07-27 01:53:00,
2013-07-26 20:58:00,59.7,49.9,30.05,NNW,340,4.0,5.0,70,0.00,,,0.00,Wunderground v.1.15,2013-07-27 01:58:00,
2013-07-26 21:03:00,59.1,49.7,30.05,NNW,339,4.0,5.0,71,0.00,,,0.00,Wunderground v.1.15,2013-07-27 02:03:00,
2013-07-26 21:08:00,58.4,49.4,30.05,NNW,344,4.0,5.0,72,0.00,,,0.00,Wunderground v.1.15,2013-07-27 02:08:00,
2013-07-26 21:13:00,57.9,49.7,30.05,North,355,3.0,5.0,74,0.00,,,0.00,Wunderground v.1.15,2013-07-27 02:13:00,
2013-07-26 21:18:00,57.2,49.3,30.06,North,355,3.0,5.0,75,0.00,,,0.00,Wunderground v.1.15,2013-07-27 02:18:00,
2013-07-26 21:23:00,56.6,49.1,30.06,NNW,347,3.0,5.0,76,0.00,,,0.00,Wunderground v.1.15,2013-07-27 02:23:00,
2013-07-26 21:28:00,56.2,49.1,30.06,NNW,332,4.0,5.0,77,0.00,,,0.00,Wunderground v.1.15,2013-07-27 02:28:00,
2013-07-26 21:33:00,55.9,49.1,30.06,NNW,340,5.0,5.0,78,0.00,,,0.00,Wunderground v.1.15,2013-07-27 02:33:00,
2013-07-26 21:38:00,55.6,49.2,30.06,NNW,338,3.0,5.0,79,0.00,,,0.00,Wunderground v.1.15,2013-07-27 02:38:00,
2013-07-26 21:43:00,55.3,49.2,30.06,NNW,333,3.0,5.0,80,0.00,,,0.00,Wunderground v.1.15,2013-07-27 02:43:00,
2013-07-26 21:48:00,55.1,49.0,30.06,NNW,339,4.0,4.0,80,0.00,,,0.00,Wunderground v.1.15,2013-07-27 02:48:00,
2013-07-26 21:53:00,54.9,49.2,30.06,NNW,328,3.0,4.0,81,0.00,,,0.00,Wunderground v.1.15,2013-07-27 02:53:00,
2013-07-26 21:58:00,54.8,49.1,30.06,NW,321,4.0,5.0,81,0.00,,,0.00,Wunderground v.1.15,2013-07-27 02:58:00,
2013-07-26 22:03:00,54.8,49.1,30.07,NW,326,2.0,5.0,81,0.00,,,0.00,Wunderground v.1.15,2013-07-27 03:03:00,
2013-07-26 22:08:00,54.6,48.9,30.07,NNW,327,3.0,4.0,81,0.00,,,0.00,Wunderground v.1.15,2013-07-27 03:08:00,
2013-07-26 22:13:00,54.2,48.8,30.07,NNW,327,3.0,4.0,82,0.00,,,0.00,Wunderground v.1.15,2013-07-27 03:13:00,
2013-07-26 22:18:00,54.0,48.6,30.07,NW,313,4.0,4.0,82,0.00,,,0.00,Wunderground v.1.15,2013-07-27 03:18:00,
2013-07-26 22:23:00,53.9,48.9,30.07,NW,305,2.0,4.0,83,0.00,,,0.00,Wunderground v.1.15,2013-07-27 03:23:00,
2013-07-26 22:28:00,53.9,49.2,30.07,NW,315,3.0,4.0,84,0.00,,,0.00,Wunderground v.1.15,2013-07-27 03:28:00,
2013-07-26 22:33:00,53.8,49.1,30.07,NW,321,3.0,4.0,84,0.00,,,0.00,Wunderground v.1.15,2013-07-27 03:33:00,
2013-07-26 22:38:00,53.8,49.1,30.07,NW,317,3.0,5.0,84,0.00,,,0.00,Wunderground v.1.15,2013-07-27 03:38:00,
2013-07-26 22:43:00,53.8,49.1,30.07,NW,315,3.0,5.0,84,0.00,,,0.00,Wunderground v.1.15,2013-07-27 03:43:00,
2013-07-26 22:48:00,53.8,49.1,30.07,NW,313,2.0,6.0,84,0.00,,,0.00,Wunderground v.1.15,2013-07-27 03:48:00,
2013-07-26 22:53:00,53.8,48.8,30.07,NW,313,2.0,6.0,83,0.00,,,0.00,Wunderground v.1.15,2013-07-27 03:53:00,
2013-07-26 22:58:00,53.7,48.7,30.07,NW,307,3.0,3.0,83,0.00,,,0.00,Wunderground v.1.15,2013-07-27 03:58:00,
2013-07-26 23:01:00,53.6,48.9,30.07,NW,309,2.0,3.0,84,0.00,,,0.00,Wunderground v.1.15,2013-07-27 04:01:00,
2013-07-26 23:06:00,53.5,48.8,30.06,NW,317,3.0,3.0,84,0.00,,,0.00,Wunderground v.1.15,2013-07-27 04:06:00,
2013-07-26 23:11:00,53.5,48.8,30.06,NNW,328,3.0,4.0,84,0.00,,,0.00,Wunderground v.1.15,2013-07-27 04:11:00,
2013-07-26 23:16:00,53.5,48.8,30.06,NW,319,3.0,4.0,84,0.00,,,0.00,Wunderground v.1.15,2013-07-27 04:16:00,
2013-07-26 23:21:00,53.4,49.0,30.07,NW,325,4.0,4.0,85,0.00,,,0.00,Wunderground v.1.15,2013-07-27 04:21:00,
2013-07-26 23:26:00,53.4,49.0,30.07,NW,324,3.0,4.0,85,0.00,,,0.00,Wunderground v.1.15,2013-07-27 04:26:00,
2013-07-26 23:31:00,53.5,49.1,30.07,WNW,294,3.0,4.0,85,0.00,,,0.00,Wunderground v.1.15,2013-07-27 04:31:00,
2013-07-26 23:36:00,53.4,49.0,30.07,NW,318,2.0,3.0,85,0.00,,,0.00,Wunderground v.1.15,2013-07-27 04:36:00,
2013-07-26 23:41:00,53.2,48.8,30.06,NW,313,4.0,5.0,85,0.00,,,0.00,Wunderground v.1.15,2013-07-27 04:41:00,
2013-07-26 23:46:00,53.3,48.9,30.07,WNW,302,4.0,5.0,85,0.00,,,0.00,Wunderground v.1.15,2013-07-27 04:46:00,
2013-07-26 23:51:00,53.4,49.3,30.07,NW,305,3.0,5.0,86,0.00,,,0.00,Wunderground v.1.15,2013-07-27 04:51:00,
2013-07-26 23:57:00,53.6,49.5,30.07,WNW,299,5.0,7.0,86,0.00,,,0.00,Wunderground v.1.15,2013-07-27 04:57:00,